EW5239 Weather Reports


Display with metric or nautical units.
time (UTC)temp
F
wind
direction
speed
MPH
gust
MPH
rain 1hr
in
rain 24hr
in
rain mn
in
humidity
%
barometer
mb
20260901003504 61 220 4.0 6.0 0.00 0.06 0.00 94 1011.9
20260901003453 61 222 4.0 5.0 0.00 0.07 0.00 96 1013.9
20260901003004 61 221 4.0 6.0 0.00 0.06 0.00 94 1011.9
20260901002504 61 226 4.0 6.0 0.00 0.06 0.00 95 1011.9
20260901002454 61 240 4.0 5.0 0.00 0.07 0.00 96 1013.7
20260901002005 61 233 4.0 6.0 0.00 0.06 0.00 95 1011.8
20260901001954 61 257 4.0 5.0 0.00 0.07 0.00 97 1013.9
20260901001505 61 229 4.0 5.0 0.00 0.06 0.00 95 1011.9
20260901001454 61 232 3.0 4.0 0.00 0.07 0.00 97 1014.0
20260901001005 61 166 3.0 5.0 0.00 0.06 0.00 95 1011.9
20260901000505 61 171 2.0 3.0 0.00 0.06 0.00 95 1011.6
20260901000454 61 216 2.0 3.0 0.00 0.07 0.00 97 1013.5
20260831235959 61 228 2.0 4.0 0.00 0.07 0.00 97 1013.7
20260831235504 61 216 3.0 3.0 0.00 0.06 0.00 95 1011.9
20260831235454 61 229 2.0 4.0 0.00 0.07 0.00 97 1013.8
20260831235004 61 218 2.0 2.0 0.00 0.06 0.00 95 1012.0
20260831234954 61 216 2.0 2.0 0.00 0.07 0.00 99 1013.9
20260831234504 61 221 2.0 2.0 0.00 0.06 0.00 95 1012.0
20260831234454 61 212 1.0 2.0 0.00 0.07 0.00 99 1013.8
20260831234005 61 225 1.0 2.0 0.00 0.06 0.00 95 1011.8
20260831233953 61 202 1.0 2.0 0.00 0.07 0.00 98 1013.7
20260831233504 61 270 0.0 2.0 0.00 0.06 0.00 95 1012.0
20260831233454 61 212 1.0 2.0 0.00 0.07 0.00 98 1013.8
20260831233005 61 255 1.0 3.0 0.00 0.06 0.00 95 1011.8
20260831232954 61 227 1.0 3.0 0.00 0.07 0.00 98 1014.0
20260831232505 61 239 2.0 4.0 0.00 0.06 0.00 95 1011.9
20260831232454 61 231 2.0 3.0 0.00 0.07 0.00 98 1014.1
20260831232004 61 223 2.0 4.0 0.00 0.06 0.00 96 1012.1
20260831231505 62 225 2.0 3.0 0.00 0.06 0.00 96 1012.2
20260831231454 61 219 2.0 3.0 0.00 0.07 0.00 98 1014.0
20260831231004 62 231 2.0 3.0 0.00 0.06 0.00 96 1012.2
20260831230954 61 213 2.0 3.0 0.00 0.07 0.00 98 1013.9
20260831230505 62 223 2.0 2.0 0.00 0.06 0.00 96 1012.1
20260831230454 61 202 2.0 2.0 0.00 0.07 0.00 98 1014.1
20260831230005 62 216 2.0 2.0 0.00 0.06 0.00 96 1012.2
20260831230000 62 197 2.0 2.0 0.00 0.07 0.00 98 1014.3
20260831225505 62 213 2.0 2.0 0.00 0.06 0.00 96 1012.3
20260831225455 61 201 2.0 2.0 0.00 0.07 0.00 98 1014.2
20260831224953 61 217 2.0 3.0 0.00 0.07 0.00 98 1014.5
20260831224454 62 211 3.0 3.0 0.00 0.07 0.00 98 1014.2
20260831224005 62 251 3.0 4.0 0.00 0.06 0.00 96 1012.3
20260831223954 62 201 3.0 3.0 0.00 0.07 0.00 98 1014.3
20260831223454 62 219 3.0 4.0 0.00 0.07 0.00 98 1014.5
20260831223005 62 237 3.0 4.0 0.00 0.06 0.00 96 1012.2
20260831222954 62 237 3.0 4.0 0.00 0.07 0.00 98 1014.5
20260831222504 62 233 3.0 6.0 0.00 0.06 0.00 96 1012.5
20260831222454 62 247 3.0 4.0 0.00 0.07 0.00 98 1014.3
20260831222004 62 235 4.0 6.0 0.00 0.06 0.00 96 1012.4
20260831221954 62 248 3.0 4.0 0.00 0.07 0.00 98 1014.5
20260831221505 62 208 3.0 4.0 0.00 0.06 0.00 96 1012.4
20260831221454 62 239 3.0 4.0 0.00 0.07 0.00 98 1014.6
20260831221005 62 149 3.0 4.0 0.00 0.06 0.00 96 1012.5
20260831220954 62 229 2.0 4.0 0.00 0.07 0.00 98 1014.6
20260831220505 62 160 3.0 3.0 0.00 0.06 0.00 96 1012.4
20260831220454 62 213 2.0 3.0 0.00 0.07 0.00 98 1014.4
20260831220006 62 229 3.0 4.0 0.00 0.06 0.00 96 1012.4
20260831220000 62 189 2.0 3.0 0.00 0.07 0.00 98 1014.5
20260831215504 62 239 2.0 4.0 0.00 0.06 0.06 96 1012.4
20260831215454 62 208 2.0 3.0 0.00 0.07 0.07 98 1014.3
20260831215004 62 224 2.0 3.0 0.00 0.06 0.06 96 1012.3
20260831214954 62 236 2.0 2.0 0.00 0.07 0.07 98 1014.3
20260831214505 62 222 3.0 4.0 0.00 0.06 0.06 96 1012.3
20260831214454 62 217 2.0 4.0 0.00 0.07 0.07 98 1014.3
20260831214005 62 228 3.0 4.0 0.00 0.06 0.06 96 1012.2
20260831213955 62 219 3.0 4.0 0.00 0.07 0.07 98 1014.2
20260831213504 62 226 2.0 4.0 0.00 0.06 0.06 96 1012.2
20260831213005 62 222 2.0 2.0 0.00 0.06 0.06 96 1012.1
20260831212954 62 207 1.0 2.0 0.00 0.07 0.07 98 1013.8
20260831212505 62 238 2.0 3.0 0.00 0.06 0.06 96 1012.2
20260831212454 62 227 2.0 3.0 0.00 0.07 0.07 98 1014.3
20260831212005 62 255 2.0 4.0 0.00 0.06 0.06 96 1012.0
20260831211954 62 236 2.0 4.0 0.00 0.07 0.07 98 1014.2
20260831211504 63 247 2.0 4.0 0.00 0.06 0.06 95 1012.0
20260831211454 62 219 2.0 4.0 0.00 0.07 0.07 98 1013.6
20260831211004 63 247 2.0 3.0 0.00 0.06 0.06 95 1012.0
20260831210954 63 215 2.0 2.0 0.00 0.07 0.07 97 1013.8
20260831210505 63 236 3.0 3.0 0.00 0.06 0.06 95 1012.1
20260831210454 63 218 2.0 3.0 0.00 0.07 0.07 97 1014.0
20260831210005 63 238 3.0 4.0 0.00 0.06 0.06 95 1012.4
20260831210000 63 232 3.0 4.0 0.00 0.07 0.07 97 1014.4
20260831205504 63 253 2.0 4.0 0.00 0.06 0.06 95 1012.5
20260831205454 63 234 3.0 4.0 0.00 0.07 0.07 97 1014.1
20260831205005 63 236 1.0 4.0 0.00 0.06 0.06 95 1012.3
20260831204953 63 206 2.0 4.0 0.00 0.07 0.07 97 1014.3
20260831204505 63 225 1.0 2.0 0.00 0.06 0.06 95 1012.2
20260831204454 63 218 1.0 2.0 0.00 0.07 0.07 97 1014.1
20260831204004 63 225 1.0 2.0 0.00 0.06 0.06 95 1012.1
20260831203954 63 220 1.0 2.0 0.00 0.07 0.07 97 1014.0
20260831203504 63 225 0.0 1.0 0.00 0.06 0.06 94 1012.0
20260831203453 63 211 1.0 2.0 0.00 0.07 0.07 97 1014.1
20260831203005 63 239 0.0 1.0 0.00 0.06 0.06 94 1011.9
20260831202954 63 220 1.0 2.0 0.00 0.07 0.07 97 1013.9
20260831202505 63 232 0.0 2.0 0.00 0.06 0.06 94 1012.0
20260831202454 63 181 1.0 2.0 0.00 0.07 0.07 97 1013.9
20260831202005 63 225 0.0 2.0 0.00 0.06 0.06 94 1012.2
20260831201954 63 177 1.0 2.0 0.00 0.07 0.07 97 1014.2
20260831201504 63 225 0.0 2.0 0.00 0.06 0.06 94 1012.1
20260831201454 63 173 0.0 2.0 0.00 0.07 0.07 97 1014.1
20260831201005 63 0 0.0 0.0 0.00 0.06 0.06 94 1012.2
20260831200954 63 199 1.0 2.0 0.00 0.07 0.07 96 1013.9
20260831200505 63 0 0.0 0.0 0.00 0.06 0.06 94 1012.1
20260831200453 63 204 2.0 2.0 0.00 0.07 0.07 96 1014.0
20260831200005 63 0 0.0 0.0 0.00 0.06 0.06 94 1012.2
20260831200000 63 209 1.0 2.0 0.00 0.07 0.07 96 1013.9
20260831195505 63 0 0.0 0.0 0.00 0.06 0.06 94 1012.1
20260831195454 63 204 1.0 2.0 0.00 0.07 0.07 96 1014.0
20260831195004 63 0 0.0 0.0 0.00 0.06 0.06 93 1012.0
20260831194504 63 0 0.0 0.0 0.00 0.06 0.06 93 1012.1
20260831194454 63 223 1.0 2.0 0.00 0.07 0.07 95 1014.0
20260831193954 63 205 0.0 2.0 0.00 0.07 0.07 95 1013.9
20260831193504 64 0 0.0 0.0 0.00 0.06 0.06 93 1012.2
20260831193454 63 197 1.0 2.0 0.00 0.07 0.07 95 1014.0
20260831193005 64 0 0.0 0.0 0.00 0.06 0.06 93 1012.1
20260831192954 63 194 2.0 4.0 0.00 0.07 0.07 95 1014.0
20260831192505 64 225 0.0 1.0 0.00 0.06 0.06 93 1012.1
20260831192454 63 185 2.0 4.0 0.00 0.07 0.07 94 1014.1
20260831192004 64 225 0.0 1.0 0.00 0.06 0.06 92 1012.1
20260831191954 63 175 1.0 3.0 0.00 0.07 0.07 94 1014.2
20260831191504 64 225 0.0 1.0 0.00 0.06 0.06 92 1012.1
20260831191453 64 202 1.0 2.0 0.00 0.07 0.07 94 1013.9
20260831190954 64 206 1.0 2.0 0.00 0.07 0.07 94 1014.0
20260831190454 64 190 1.0 2.0 0.00 0.07 0.07 93 1013.9
20260831190006 64 0 0.0 0.0 0.00 0.06 0.06 92 1012.1
20260831190000 64 204 0.0 2.0 0.00 0.07 0.07 93 1013.8
20260831185504 64 225 0.0 2.0 0.00 0.06 0.06 92 1012.1
20260831185454 64 224 1.0 2.0 0.00 0.07 0.07 93 1014.0
20260831185004 64 236 1.0 2.0 0.00 0.06 0.06 92 1012.1
20260831184505 65 250 1.0 2.0 0.00 0.06 0.06 92 1012.0
20260831184454 64 261 2.0 2.0 0.00 0.07 0.07 94 1014.0
20260831184005 65 261 1.0 2.0 0.00 0.06 0.06 92 1012.0
20260831183954 65 257 2.0 2.0 0.00 0.07 0.07 94 1014.0
20260831182954 65 174 2.0 3.0 0.00 0.07 0.07 94 1014.0
20260831182454 66 181 3.0 4.0 0.00 0.07 0.07 94 1014.0
20260831181954 66 181 4.0 4.0 0.00 0.07 0.07 93 1013.8
20260831181504 66 181 1.0 4.0 0.00 0.06 0.06 92 1011.8
20260831181005 66 181 2.0 4.0 0.00 0.06 0.06 90 1011.7
20260831180954 66 184 3.0 4.0 0.00 0.07 0.07 91 1013.7
20260831180504 67 181 2.0 4.0 0.00 0.06 0.06 90 1011.6
20260831180454 66 181 3.0 4.0 0.00 0.07 0.07 91 1013.5
20260831175505 67 0 0.0 0.0 0.00 0.06 0.06 90 1011.7
20260831175454 67 176 2.0 3.0 0.00 0.07 0.07 91 1013.3
20260831175005 67 0 0.0 0.0 0.00 0.06 0.06 89 1011.4
20260831174954 67 174 2.0 3.0 0.00 0.07 0.07 90 1013.5
20260831174504 67 0 0.0 0.0 0.00 0.06 0.06 89 1011.5
20260831174454 67 177 1.0 2.0 0.00 0.07 0.07 90 1013.3
20260831173954 67 182 1.0 2.0 0.00 0.07 0.07 90 1013.6
20260831173505 67 0 0.0 0.0 0.00 0.06 0.06 89 1011.5
20260831172954 68 204 1.0 4.0 0.00 0.07 0.07 89 1013.5
20260831172453 68 221 2.0 5.0 0.00 0.07 0.07 89 1013.4
20260831172005 68 245 3.0 5.0 0.00 0.06 0.06 87 1011.5
20260831171954 68 229 3.0 5.0 0.00 0.07 0.07 87 1013.4
20260831171504 68 243 3.0 5.0 0.00 0.06 0.06 87 1011.5
20260831171453 68 220 3.0 5.0 0.00 0.07 0.07 87 1013.4
20260831171004 68 259 3.0 5.0 0.00 0.06 0.06 87 1011.4
20260831171001 69 242 3.0 5.0 0.00 0.07 0.07 86 1013.3
20260831170000 69 223 3.0 4.0 0.00 0.07 0.07 86 1013.2
20260831165504 69 203 2.0 4.0 0.00 0.06 0.06 86 1011.2
20260831165005 69 223 2.0 4.0 0.00 0.06 0.06 86 1011.2
20260831164954 69 196 3.0 4.0 0.00 0.07 0.07 86 1013.3
20260831164505 69 240 3.0 5.0 0.00 0.06 0.06 86 1011.3
20260831164454 69 212 3.0 5.0 0.00 0.07 0.07 86 1013.2
20260831163504 69 236 6.0 8.0 0.00 0.06 0.06 86 1011.4
20260831163453 69 236 6.0 9.0 0.00 0.07 0.07 85 1013.4
20260831163005 69 242 5.0 8.0 0.00 0.06 0.06 87 1011.2
20260831162504 69 256 5.0 7.0 0.00 0.06 0.06 87 1011.3
20260831162454 69 231 5.0 8.0 0.00 0.07 0.07 86 1013.2
20260831162004 69 245 5.0 8.0 0.00 0.06 0.06 87 1011.5
20260831161953 69 259 5.0 8.0 0.00 0.07 0.07 86 1013.2
20260831161504 69 245 4.0 8.0 0.00 0.06 0.06 87 1011.4
20260831161454 69 280 5.0 8.0 0.00 0.07 0.07 86 1013.3
20260831161005 69 230 5.0 5.0 0.00 0.06 0.06 87 1011.6
20260831160954 69 233 5.0 7.0 0.00 0.07 0.07 86 1013.4
20260831160504 69 229 5.0 8.0 0.00 0.06 0.06 88 1011.7
20260831160454 69 206 6.0 8.0 0.00 0.07 0.07 86 1013.3
20260831160004 69 233 5.0 8.0 0.00 0.06 0.06 88 1011.5
20260831155504 69 237 5.0 8.0 0.00 0.06 0.06 89 1011.6
20260831155005 69 239 5.0 8.0 0.00 0.06 0.06 90 1011.6
20260831154954 70 239 5.0 8.0 0.00 0.07 0.07 89 1013.4
20260831154504 69 237 3.0 4.0 0.00 0.06 0.06 91 1011.6
20260831154454 69 236 3.0 5.0 0.00 0.07 0.07 90 1013.4
20260831154004 69 229 2.0 3.0 0.00 0.06 0.06 91 1011.6
20260831153954 69 198 2.0 3.0 0.00 0.07 0.07 90 1013.2
20260831153504 69 230 2.0 4.0 0.00 0.06 0.06 91 1011.6
20260831153454 69 215 3.0 5.0 0.00 0.07 0.07 90 1013.5
20260831153005 69 232 3.0 4.0 0.00 0.06 0.06 91 1011.7
20260831152954 69 220 3.0 5.0 0.01 0.07 0.07 89 1013.5
20260831152504 69 233 3.0 5.0 0.00 0.06 0.06 91 1011.6
20260831152454 69 212 3.0 4.0 0.01 0.07 0.07 90 1013.4
20260831152004 69 246 4.0 8.0 0.00 0.06 0.06 92 1011.7
20260831151954 69 234 5.0 8.0 0.01 0.07 0.07 90 1013.4
20260831151504 69 244 5.0 8.0 0.00 0.06 0.06 93 1011.7
20260831151453 69 257 5.0 8.0 0.01 0.07 0.07 92 1013.5
20260831151005 69 237 5.0 7.0 0.00 0.06 0.06 93 1011.7
20260831150454 69 208 5.0 6.0 0.01 0.07 0.07 94 1013.7
20260831150005 68 254 4.0 7.0 0.00 0.06 0.06 94 1011.5
20260831145454 68 205 3.0 5.0 0.01 0.07 0.07 95 1013.6
20260831145004 68 220 3.0 4.0 0.00 0.06 0.06 94 1011.5
20260831144954 68 203 3.0 4.0 0.01 0.07 0.07 95 1013.3
20260831144504 68 204 4.0 7.0 0.00 0.06 0.06 95 1011.5
20260831144453 68 195 4.0 8.0 0.01 0.07 0.07 97 1013.5
20260831143954 68 200 4.0 8.0 0.01 0.07 0.07 97 1013.5
20260831143504 68 227 3.0 4.0 0.00 0.06 0.06 95 1011.6
20260831143004 67 220 2.0 4.0 0.00 0.06 0.06 95 1011.5
20260831142954 67 222 3.0 4.0 0.00 0.06 0.06 97 1013.4
20260831142504 67 185 3.0 7.0 0.00 0.06 0.06 95 1011.5
20260831142453 67 210 4.0 8.0 0.00 0.06 0.06 97 1013.2
20260831142005 67 181 5.0 7.0 0.00 0.06 0.06 95 1011.5
20260831141954 67 188 5.0 8.0 0.00 0.06 0.06 97 1013.3
20260831141504 67 181 5.0 7.0 0.00 0.06 0.06 95 1011.3
20260831141454 67 181 5.0 7.0 0.00 0.06 0.06 97 1013.3
20260831141004 67 162 4.0 7.0 0.00 0.06 0.06 95 1011.3
20260831140454 67 167 4.0 6.0 0.00 0.06 0.06 96 1013.3
20260831140000 67 168 4.0 6.0 0.00 0.06 0.06 96 1013.3
20260831135504 67 174 3.0 4.0 0.01 0.06 0.06 94 1011.6
20260831134954 67 156 3.0 4.0 0.01 0.06 0.06 96 1013.5
20260831134505 67 187 2.0 4.0 0.01 0.06 0.06 94 1011.6
20260831134454 67 164 3.0 4.0 0.01 0.06 0.06 95 1013.6
20260831134004 67 176 2.0 4.0 0.02 0.06 0.06 94 1011.6
20260831133504 67 158 1.0 4.0 0.02 0.06 0.06 94 1011.7
20260831133454 67 161 3.0 4.0 0.04 0.06 0.06 95 1013.7
20260831133004 67 0 0.0 0.0 0.04 0.06 0.06 93 1011.7
20260831132505 67 0 0.0 0.0 0.04 0.06 0.06 93 1011.9
20260831132454 67 199 2.0 3.0 0.04 0.06 0.06 95 1013.7
20260831132004 67 0 0.0 0.0 0.04 0.06 0.06 93 1012.0
20260831130954 67 232 2.0 4.0 0.05 0.06 0.06 94 1013.8
20260831130505 67 248 3.0 4.0 0.05 0.06 0.06 92 1011.9
20260831130004 67 259 3.0 4.0 0.05 0.06 0.06 91 1011.8
20260831130000 67 242 3.0 5.0 0.05 0.06 0.06 93 1013.7
20260831125504 67 266 5.0 6.0 0.04 0.05 0.05 91 1012.0
20260831125454 67 265 5.0 7.0 0.04 0.05 0.05 92 1014.1
20260831125004 67 257 6.0 8.0 0.04 0.05 0.05 90 1012.2
20260831124954 67 275 7.0 9.0 0.04 0.05 0.05 91 1014.0
20260831124505 67 262 8.0 11.0 0.02 0.04 0.04 89 1012.4
20260831124004 67 271 9.0 11.0 0.02 0.04 0.04 89 1012.2
20260831123954 67 261 9.0 11.0 0.02 0.04 0.04 89 1014.1
20260831123454 68 280 9.0 11.0 0.02 0.02 0.02 89 1014.1
20260831123004 68 249 8.0 12.0 0.02 0.02 0.02 88 1012.3
20260831122954 68 272 9.0 12.0 0.02 0.02 0.02 88 1014.1
20260831122505 68 237 7.0 12.0 0.02 0.02 0.02 88 1012.4
20260831122454 68 281 7.0 12.0 0.02 0.02 0.02 88 1014.1
20260831122004 68 234 6.0 8.0 0.02 0.02 0.02 87 1012.2
20260831121954 68 273 6.0 8.0 0.02 0.02 0.02 88 1014.0
20260831121504 69 272 5.0 6.0 0.02 0.02 0.02 87 1012.2
20260831121454 69 245 5.0 6.0 0.02 0.02 0.02 88 1014.2
20260831121004 69 286 4.0 5.0 0.02 0.02 0.02 87 1012.2
20260831120954 69 265 4.0 5.0 0.01 0.01 0.01 88 1014.0
20260831120504 69 240 2.0 4.0 0.01 0.01 0.01 86 1012.2
20260831120453 69 256 2.0 4.0 0.01 0.01 0.01 87 1014.1
20260831120000 69 192 1.0 3.0 0.01 0.01 0.01 86 1014.0
20260831115504 69 223 1.0 3.0 0.01 0.01 0.01 84 1012.0
20260831115453 69 207 2.0 3.0 0.01 0.01 0.01 85 1013.9
20260831115004 69 230 2.0 3.0 0.01 0.01 0.01 83 1012.1
20260831113954 70 228 5.0 8.0 0.00 0.00 0.00 82 1014.0
20260831113504 70 207 5.0 8.0 0.00 0.00 0.00 79 1012.2
20260831113454 70 196 6.0 8.0 0.00 0.00 0.00 79 1013.9
20260831113004 71 201 6.0 9.0 0.00 0.00 0.00 77 1012.0
20260831112954 71 207 6.0 9.0 0.00 0.00 0.00 78 1014.0
20260831112505 71 186 7.0 9.0 0.00 0.00 0.00 76 1012.1
20260831112004 72 185 7.0 9.0 0.00 0.00 0.00 74 1012.1
20260831111954 72 179 7.0 11.0 0.00 0.00 0.00 74 1014.0
20260831111504 72 177 8.0 12.0 0.00 0.00 0.00 73 1012.2
20260831111454 72 185 8.0 12.0 0.00 0.00 0.00 73 1014.1
20260831111004 73 151 12.0 20.0 0.00 0.00 0.00 71 1012.0
20260831110954 73 189 12.0 20.0 0.00 0.00 0.00 71 1013.9
20260831110505 73 169 10.0 20.0 0.00 0.00 0.00 70 1012.0
20260831110454 73 189 11.0 20.0 0.00 0.00 0.00 69 1013.6
20260831110004 74 199 5.0 9.0 0.00 0.00 0.00 72 1011.9
20260831110000 73 181 5.0 14.0 0.00 0.00 0.00 71 1013.5
20260831105504 74 184 5.0 8.0 0.00 0.00 0.00 71 1011.8
20260831105454 74 168 6.0 8.0 0.00 0.00 0.00 70 1013.6
20260831105004 74 177 5.0 8.0 0.00 0.00 0.00 71 1011.8
20260831104505 74 190 3.0 7.0 0.00 0.00 0.00 71 1011.9
20260831104454 74 186 4.0 8.0 0.00 0.00 0.00 70 1013.4
20260831104004 74 200 2.0 4.0 0.00 0.00 0.00 70 1011.8
20260831103954 74 184 3.0 4.0 0.00 0.00 0.00 69 1013.6
20260831103504 74 185 2.0 4.0 0.00 0.00 0.00 70 1011.8
20260831103454 74 189 3.0 4.0 0.00 0.00 0.00 69 1013.7
20260831103004 74 194 2.0 4.0 0.00 0.00 0.00 70 1011.8
20260831102954 74 202 3.0 4.0 0.00 0.00 0.00 68 1013.5
20260831102454 74 196 3.0 4.0 0.00 0.00 0.00 68 1013.5
20260831102004 74 209 3.0 4.0 0.00 0.00 0.00 69 1011.8
20260831101954 74 192 3.0 4.0 0.00 0.00 0.00 67 1013.7
20260831101504 74 197 3.0 5.0 0.00 0.00 0.00 69 1011.8
20260831101454 74 205 3.0 5.0 0.00 0.00 0.00 67 1013.5
20260831101004 74 208 4.0 5.0 0.00 0.00 0.00 68 1011.7
20260831100954 75 213 3.0 5.0 0.00 0.00 0.00 67 1013.5
20260831100504 74 226 3.0 4.0 0.00 0.00 0.00 68 1011.7
20260831100454 75 217 3.0 4.0 0.00 0.00 0.00 67 1013.4
20260831100001 75 207 3.0 4.0 0.00 0.00 0.00 66 1013.4
20260831095504 75 209 3.0 4.0 0.00 0.00 0.00 69 1011.7
20260831095454 75 194 3.0 4.0 0.00 0.00 0.00 67 1013.5
20260831095004 75 220 3.0 7.0 0.00 0.00 0.00 68 1011.6
20260831094954 75 201 3.0 6.0 0.00 0.00 0.00 66 1013.3
20260831094504 75 220 3.0 7.0 0.00 0.00 0.00 69 1011.7
20260831094454 75 209 3.0 6.0 0.00 0.00 0.00 66 1013.4
20260831093954 75 192 2.0 5.0 0.00 0.00 0.00 68 1013.2
20260831093504 74 225 1.0 4.0 0.00 0.00 0.00 71 1011.7
20260831093454 75 183 2.0 5.0 0.00 0.00 0.00 68 1013.3
20260831092954 74 207 2.0 4.0 0.00 0.00 0.00 71 1013.1
20260831092504 74 251 0.0 2.0 0.00 0.00 0.00 74 1011.6
20260831092454 74 238 2.0 4.0 0.00 0.00 0.00 72 1013.4
20260831091954 74 259 2.0 3.0 0.00 0.00 0.00 71 1013.7
20260831091504 74 246 2.0 3.0 0.00 0.00 0.00 71 1011.8
20260831091455 74 243 2.0 3.0 0.00 0.00 0.00 69 1013.6
20260831091004 74 236 2.0 4.0 0.00 0.00 0.00 70 1011.8
20260831090504 74 229 3.0 4.0 0.00 0.00 0.00 68 1012.0
20260831090454 75 214 3.0 3.0 0.00 0.00 0.00 66 1013.6
20260831090005 74 231 2.0 3.0 0.00 0.00 0.00 68 1011.8
20260831090001 75 222 3.0 3.0 0.00 0.00 0.00 66 1013.5
20260831085504 75 224 2.0 4.0 0.00 0.00 0.00 67 1011.8
20260831085454 75 201 3.0 4.0 0.00 0.00 0.00 65 1013.6
20260831084954 75 189 3.0 5.0 0.00 0.00 0.00 65 1013.4
20260831084504 75 200 3.0 5.0 0.00 0.00 0.00 66 1011.9
20260831084454 75 192 3.0 5.0 0.00 0.00 0.00 64 1013.4
20260831084005 75 194 4.0 6.0 0.00 0.00 0.00 66 1011.9
20260831083504 75 201 3.0 6.0 0.00 0.00 0.00 66 1011.8
20260831083454 75 187 3.0 6.0 0.00 0.00 0.00 62 1013.3
20260831082954 75 175 3.0 5.0 0.00 0.00 0.00 62 1013.5
20260831082004 75 200 3.0 5.0 0.00 0.00 0.00 65 1011.9
20260831081954 75 220 4.0 5.0 0.00 0.00 0.00 61 1013.4
20260831081504 74 205 4.0 5.0 0.00 0.00 0.00 65 1011.7
20260831081454 75 206 4.0 6.0 0.00 0.00 0.00 61 1013.5
20260831081004 74 194 5.0 5.0 0.00 0.00 0.00 65 1011.8
20260831080954 75 201 4.0 6.0 0.00 0.00 0.00 61 1013.5
20260831080504 74 189 5.0 6.0 0.00 0.00 0.00 65 1011.8
20260831080454 75 216 5.0 7.0 0.00 0.00 0.00 62 1013.6
20260831080005 74 198 5.0 6.0 0.00 0.00 0.00 65 1011.6
20260831080000 74 206 5.0 7.0 0.00 0.00 0.00 61 1013.3
20260831075503 74 210 4.0 6.0 0.00 0.00 0.00 66 1012.0
20260831075454 74 216 4.0 7.0 0.00 0.00 0.00 62 1013.3
20260831074953 74 232 3.0 7.0 0.00 0.00 0.00 64 1013.2
20260831074504 73 185 3.0 5.0 0.00 0.00 0.00 67 1011.8
20260831074454 74 175 3.0 5.0 0.00 0.00 0.00 64 1013.5
20260831074004 73 182 3.0 5.0 0.00 0.00 0.00 67 1011.7
20260831073954 74 192 3.0 5.0 0.00 0.00 0.00 63 1013.3
20260831073504 73 204 3.0 4.0 0.00 0.00 0.00 67 1011.7
20260831073454 74 209 4.0 4.0 0.00 0.00 0.00 63 1013.6
20260831073004 73 222 3.0 4.0 0.00 0.00 0.00 69 1011.6
20260831072954 73 211 3.0 4.0 0.00 0.00 0.00 65 1013.4
20260831072504 73 190 3.0 3.0 0.00 0.00 0.00 72 1011.7
20260831072454 73 183 3.0 3.0 0.00 0.00 0.00 69 1013.4
20260831071954 72 165 3.0 3.0 0.00 0.00 0.00 71 1013.3
20260831071504 72 200 2.0 3.0 0.00 0.00 0.00 73 1011.9
20260831071454 72 147 2.0 3.0 0.00 0.00 0.00 71 1013.4
20260831071004 71 172 3.0 4.0 0.00 0.00 0.00 75 1011.7
20260831070954 71 154 3.0 5.0 0.00 0.00 0.00 74 1013.3
20260831070503 71 176 4.0 5.0 0.00 0.00 0.00 76 1011.7
20260831070454 71 165 4.0 7.0 0.00 0.00 0.00 73 1013.5
20260831070000 71 179 4.0 7.0 0.00 0.00 0.00 74 1013.5
20260831065504 69 183 4.0 6.0 0.00 0.00 0.00 81 1011.8
20260831065004 69 170 2.0 4.0 0.00 0.00 0.00 84 1011.7
20260831064954 69 162 2.0 4.0 0.00 0.00 0.00 85 1013.5
20260831064454 68 184 2.0 4.0 0.00 0.00 0.00 88 1013.6
20260831064004 68 149 2.0 3.0 0.00 0.00 0.00 87 1012.0
20260831063954 67 160 2.0 3.0 0.00 0.00 0.00 91 1013.7
20260831063503 67 130 2.0 3.0 0.00 0.00 0.00 88 1011.9
20260831063454 67 144 3.0 4.0 0.00 0.00 0.00 92 1013.7
20260831062504 66 158 2.0 4.0 0.00 0.00 0.00 90 1012.0
20260831062454 66 152 2.0 4.0 0.00 0.00 0.00 96 1013.7
20260831061954 65 162 2.0 3.0 0.00 0.00 0.00 97 1014.0
20260831061503 65 174 2.0 3.0 0.00 0.00 0.00 91 1012.1
20260831061454 64 168 3.0 4.0 0.00 0.00 0.00 97 1013.8
20260831061004 64 174 1.0 3.0 0.00 0.00 0.00 92 1012.1
20260831060955 64 175 2.0 4.0 0.00 0.00 0.00 97 1014.1
20260831060504 64 0 0.0 0.0 0.00 0.00 0.00 93 1012.1
20260831060454 63 173 1.0 2.0 0.00 0.00 0.00 97 1013.9
20260831060000 62 165 1.0 2.0 0.00 0.00 0.00 98 1013.9
20260831055504 64 175 1.0 3.0 0.00 0.00 0.00 93 1012.0
20260831055454 62 172 2.0 3.0 0.00 0.00 0.00 98 1014.1
20260831054504 63 181 0.0 3.0 0.00 0.00 0.00 95 1011.9
20260831054454 60 150 2.0 3.0 0.00 0.00 0.00 99 1013.9
20260831054004 62 0 0.0 0.0 0.00 0.00 0.00 96 1012.0
20260831053454 59 125 1.0 2.0 0.00 0.00 0.00 99 1013.9
20260831053004 60 0 0.0 0.0 0.00 0.00 0.00 96 1011.9
20260831052955 58 122 1.0 2.0 0.00 0.00 0.00 99 1014.0
20260831052503 58 0 0.0 0.0 0.00 0.00 0.00 97 1011.9
20260831052454 58 169 1.0 2.0 0.00 0.00 0.00 99 1013.9
20260831051955 58 177 1.0 2.0 0.00 0.00 0.00 99 1013.8
20260831051504 58 0 0.0 0.0 0.00 0.00 0.00 96 1011.9
20260831051454 58 135 0.0 2.0 0.00 0.00 0.00 99 1013.9
20260831050954 57 125 1.0 2.0 0.00 0.00 0.00 99 1013.9
20260831050504 58 0 0.0 0.0 0.00 0.00 0.00 96 1011.7
20260831050455 57 118 1.0 2.0 0.00 0.00 0.00 99 1013.9
20260831050000 57 135 0.0 1.0 0.00 0.00 0.00 99 1013.9
20260831045504 57 0 0.0 0.0 0.00 0.00 0.00 97 1011.9
20260831045455 57 98 0.0 2.0 0.00 0.00 0.00 99 1014.1
20260831045004 57 0 0.0 0.0 0.00 0.00 0.00 97 1011.9
20260831044954 57 98 0.0 2.0 0.00 0.00 0.00 99 1013.9
20260831044504 57 0 0.0 0.0 0.00 0.00 0.00 97 1011.9
20260831044004 57 0 0.0 0.0 0.00 0.00 0.00 97 1011.9
20260831043504 57 0 0.0 0.0 0.00 0.00 0.00 97 1012.0
20260831043004 57 0 0.0 0.0 0.00 0.00 0.00 97 1011.9
20260831042954 56 105 0.0 2.0 0.00 0.00 0.00 99 1014.1
20260831042503 57 0 0.0 0.0 0.00 0.00 0.00 97 1012.1
20260831042455 56 90 0.0 1.0 0.00 0.00 0.00 99 1014.0
20260831042004 56 0 0.0 0.0 0.00 0.00 0.00 96 1012.1
20260831041954 56 0 0.0 0.0 0.00 0.00 0.00 99 1014.0
20260831041504 56 0 0.0 0.0 0.00 0.00 0.00 96 1012.0
20260831041003 56 0 0.0 0.0 0.00 0.00 0.00 96 1012.0
20260831040954 56 0 0.0 0.0 0.00 0.00 0.00 99 1014.0
20260831040504 56 0 0.0 0.0 0.00 0.00 0.00 96 1011.9
20260831040454 56 90 0.0 1.0 0.00 0.00 0.00 99 1014.2
20260831040004 56 0 0.0 0.0 0.00 0.00 0.00 96 1012.1
20260831040001 56 90 0.0 2.0 0.00 0.00 0.00 99 1014.1
20260831035504 56 90 0.0 2.0 0.00 0.00 0.00 96 1012.0
20260831035454 56 85 1.0 2.0 0.00 0.00 0.00 99 1014.1
20260831035004 56 90 0.0 2.0 0.00 0.00 0.00 96 1012.2
20260831034955 56 86 1.0 2.0 0.00 0.00 0.00 99 1014.1
20260831034504 56 0 0.0 0.0 0.00 0.00 0.00 96 1012.1
20260831034455 56 94 0.0 2.0 0.00 0.00 0.00 98 1014.4
20260831034004 56 225 0.0 2.0 0.00 0.00 0.00 96 1012.0
20260831033955 56 171 0.0 2.0 0.00 0.00 0.00 98 1014.0
20260831033504 56 234 1.0 2.0 0.00 0.00 0.00 96 1012.2
20260831033455 55 214 1.0 2.0 0.00 0.00 0.00 98 1014.3
20260831033004 56 238 0.0 2.0 0.00 0.00 0.00 96 1012.0
20260831032954 56 220 1.0 2.0 0.00 0.00 0.00 98 1014.3
20260831032503 56 0 0.0 0.0 0.00 0.00 0.00 96 1012.1
20260831032003 56 0 0.0 0.0 0.00 0.00 0.00 96 1012.1
20260831031954 56 225 1.0 2.0 0.00 0.00 0.00 98 1013.9
20260831031455 56 0 0.0 0.0 0.00 0.00 0.00 98 1014.1
20260831031004 57 0 0.0 0.0 0.00 0.00 0.00 96 1012.0
20260831030503 57 0 0.0 0.0 0.00 0.00 0.00 96 1011.9
20260831030455 57 0 0.0 0.0 0.00 0.00 0.00 98 1014.0
20260831030004 57 0 0.0 0.0 0.00 0.00 0.00 95 1011.9
20260831030001 57 45 0.0 1.0 0.00 0.00 0.00 98 1013.9
20260831025504 57 0 0.0 0.0 0.00 0.00 0.00 95 1012.0
20260831025455 57 83 1.0 2.0 0.00 0.00 0.00 97 1013.9
20260831024503 57 135 0.0 2.0 0.00 0.00 0.00 95 1011.9
20260831024004 57 135 0.0 2.0 0.00 0.00 0.00 95 1011.9
20260831023504 57 0 0.0 0.0 0.00 0.00 0.00 95 1012.1
20260831023455 57 121 0.0 2.0 0.00 0.00 0.00 97 1013.9
20260831023003 57 0 0.0 0.0 0.00 0.00 0.00 95 1012.0
20260831022955 57 0 0.0 0.0 0.00 0.00 0.00 97 1014.0
20260831022455 57 0 0.0 0.0 0.00 0.00 0.00 96 1014.0
20260831022004 57 0 0.0 0.0 0.00 0.00 0.00 94 1012.2
20260831021955 57 0 0.0 0.0 0.00 0.00 0.00 96 1014.3
20260831021503 57 0 0.0 0.0 0.00 0.00 0.00 94 1012.1
20260831021455 57 90 0.0 1.0 0.00 0.00 0.00 96 1014.0
20260831021004 57 0 0.0 0.0 0.00 0.00 0.00 94 1012.1
20260831020954 57 90 0.0 2.0 0.00 0.00 0.00 96 1014.1
20260831020504 57 0 0.0 0.0 0.00 0.00 0.00 94 1012.2
20260831020455 57 90 0.0 2.0 0.00 0.00 0.00 96 1014.3
20260831020003 57 0 0.0 0.0 0.00 0.00 0.00 94 1012.1
20260831020001 57 90 0.0 2.0 0.00 0.00 0.00 96 1014.3
20260831015455 58 90 1.0 2.0 0.00 0.00 0.00 96 1014.3
20260831015004 58 0 0.0 0.0 0.00 0.00 0.00 94 1012.5
20260831014955 57 90 0.0 2.0 0.00 0.00 0.00 95 1014.4
20260831014504 57 0 0.0 0.0 0.00 0.00 0.00 94 1012.3
20260831014455 57 112 0.0 1.0 0.00 0.00 0.00 95 1014.2
20260831014004 57 0 0.0 0.0 0.00 0.00 0.00 94 1012.3
20260831013955 57 135 0.0 1.0 0.00 0.00 0.00 96 1014.5
20260831013504 57 0 0.0 0.0 0.00 0.00 0.00 93 1012.4
20260831013455 57 0 0.0 0.0 0.00 0.00 0.00 96 1014.3
20260831013003 57 0 0.0 0.0 0.00 0.00 0.00 93 1012.4
20260831012955 57 18 0.0 8.0 0.00 0.00 0.00 96 1014.3
20260831012503 57 0 0.0 0.0 0.00 0.00 0.00 93 1012.3
20260831012455 57 10 0.0 8.0 0.00 0.00 0.00 95 1014.2
20260831011955 57 135 0.0 1.0 0.00 0.00 0.00 95 1014.4
20260831011504 58 0 0.0 0.0 0.00 0.00 0.00 94 1012.4
20260831011004 58 0 0.0 0.0 0.00 0.00 0.00 93 1012.2
20260831010956 58 135 0.0 1.0 0.00 0.00 0.00 94 1014.3
20260831010504 58 0 0.0 0.0 0.00 0.00 0.00 93 1012.3
20260831010455 58 0 0.0 0.0 0.00 0.00 0.00 94 1014.1
20260831010004 58 0 0.0 0.0 0.00 0.00 0.00 93 1012.1
20260831010001 58 0 0.0 0.0 0.00 0.00 0.00 94 1014.0
20260831005504 58 0 0.0 0.0 0.00 0.00 0.00 93 1012.2
20260831005455 58 286 0.0 2.0 0.00 0.00 0.00 94 1014.4
20260831005003 58 0 0.0 0.0 0.00 0.00 0.00 93 1012.3
20260831004955 58 291 0.0 2.0 0.00 0.00 0.00 94 1014.2
20260831004504 59 0 0.0 0.0 0.00 0.00 0.00 93 1012.4
20260831004458 59 46 0.0 1.0 0.00 0.00 0.00 94 1014.5
20260831004004 59 0 0.0 0.0 0.00 0.00 0.00 93 1012.5
20260831003956 59 135 0.0 1.0 0.00 0.00 0.00 94 1014.3